Bellingham, Washington, United States (98225)
Lat: 48.76N, Lon: 122.49W
Wx Zone: WAZ503
Local Info
Past Weather Observations for Friday, August 29, 2014

NOTE: This archive is for the closest National Weather Service station to Bellingham. Information may differ from the station used for current weather conditions.

Click here for Long-term Archive

Time Weather Temperature Dewpoint Humidity Pressure Winds Precip Visibility
23:53
Overcast
61°F / 16°C 55°F / 13°C 83% 29.95 in
(1014 mb)
S 4.6 mph
(S 7 kph)
- 10SM
22:53
Partly Cloudy
61°F / 16°C 54°F / 12°C 77% 29.95 in
(1014 mb)
S 4.6 mph
(S 7 kph)
- 10SM
21:53
Clear
61°F / 16°C 55°F / 13°C 83% 29.95 in
(1014 mb)
S 5.8 mph
(S 9 kph)
- 10SM
20:53
Mostly Cloudy
61°F / 16°C 55°F / 13°C 83% 29.95 in
(1014 mb)
S 4.6 mph
(S 7 kph)
- 10SM
19:53
Partly Cloudy
61°F / 16°C 55°F / 13°C 83% 29.95 in
(1014 mb)
SSE 3.5 mph
(SSE 6 kph)
- 10SM
18:53
Mostly Cloudy
63°F / 17°C 55°F / 13°C 77% 29.95 in
(1014 mb)
Calm 0.00 in
(0.00 mm)
10SM
17:53
Overcast
64°F / 18°C 54°F / 12°C 68% 29.95 in
(1014 mb)
Calm - 10SM
16:53
Overcast
63°F / 17°C 55°F / 13°C 77% 29.95 in
(1014 mb)
SE 5.8 mph
(SE 9 kph)
0.00 in
(0.00 mm)
10SM
15:53
Overcast
64°F / 18°C 54°F / 12°C 68% 29.98 in
(1015 mb)
SSE 3.5 mph
(SSE 6 kph)
- 10SM
14:53
Overcast
64°F / 18°C 52°F / 11°C 64% 29.98 in
(1015 mb)
S 5.8 mph
(S 9 kph)
- 10SM
13:53
Overcast
64°F / 18°C 48°F / 9°C 56% 29.98 in
(1015 mb)
S 8.1 mph
(S 13 kph)
- 10SM
12:53
Partly Cloudy
63°F / 17°C 48°F / 9°C 59% 29.98 in
(1015 mb)
S 6.9 mph
(S 11 kph)
- 10SM
11:53
Mostly Cloudy
63°F / 17°C 48°F / 9°C 59% 29.98 in
(1015 mb)
S 11.5 mph
(S 19 kph)
- 10SM
10:53
Overcast
63°F / 17°C 50°F / 10°C 64% 29.98 in
(1015 mb)
SSE 11.5 mph
(SSE 19 kph)
- 10SM
09:53
Overcast
61°F / 16°C 48°F / 9°C 63% 29.98 in
(1015 mb)
S 8.1 mph
(S 13 kph)
0.00 in
(0.00 mm)
10SM
08:53
Overcast
Light Rain
61°F / 16°C 48°F / 9°C 63% N/A S 10.4 mph
(S 17 kph)
0.00 in
(0.00 mm)
10SM
07:53
Overcast
61°F / 16°C 50°F / 10°C 68% N/A S 10.4 mph
(S 17 kph)
- 10SM
06:53
Overcast
61°F / 16°C 52°F / 11°C 72% N/A SSE 10.4 mph
(SSE 17 kph)
- 10SM
05:53
Mostly Cloudy
61°F / 16°C 52°F / 11°C 72% 29.95 in
(1014 mb)
S 12.7 mph
(S 20 kph)
- 10SM
04:53
Mostly Cloudy
63°F / 17°C 52°F / 11°C 68% 29.95 in
(1014 mb)
S 8.1 mph
(S 13 kph)
- 10SM
04:15
Mostly Cloudy
61°F / 16°C 52°F / 11°C 72% 29.95 in
(1014 mb)
S 6.9 mph
(S 11 kph)
- 10SM
03:53
Overcast
63°F / 17°C 52°F / 11°C 68% 29.95 in
(1014 mb)
S 9.2 mph
(S 15 kph)
- 10SM
03:49
Overcast
63°F / 17°C 52°F / 11°C 68% 29.95 in
(1014 mb)
S 9.2 mph
(S 15 kph)
- 10SM
02:53
Overcast
63°F / 17°C 52°F / 11°C 68% 29.95 in
(1014 mb)
SSE 9.2 mph
(SSE 15 kph)
0.00 in
(0.00 mm)
10SM
01:53
Overcast
63°F / 17°C 54°F / 12°C 73% 29.98 in
(1015 mb)
S 10.4 mph
(S 17 kph)
- 10SM
00:53
Overcast
63°F / 17°C 55°F / 13°C 77% 29.98 in
(1015 mb)
S 8.1 mph
(S 13 kph)
- 10SM
Time Weather Temperature Dewpoint Humidity Pressure Winds Precip Visibility


Weather for websites

WeatherForYou.com, LLC is not responsible for any damages or problems caused by this service. Current weather conditions are obtained from the closest station including government and personal stations which may have varying degrees of accuracy. Weather forecasts are derived from the NOAA NDFD. Like all things, this site belongs to Jesus Christ... He just trusts me to maintain it. If you have any questions or comments email webmaster@weatherforyou.com

Copyright © 2014, WeatherForYou.com LLC. All rights reserved.